Hourly Data Report for August 25, 2003

TORONTO CITY
ONTARIO

43°40'00.000" N
79°24'00.000" W
112.50 m
6158355
71508
XTO

Download Data

Hourly Data (August 2003)
Hourly Data Report for August 25, 2003
TIME
LST
Temp Definition
°C
Dew Point Definition
°C
Rel Hum Definition
%
Precip. Amount Definition
mm

Wind Dir Definition
10's deg

Wind Spd Definition
km/h
Visibility Definition
km
Stn Press Definition
kPa
Hmdx Definition


Wind Chill Definition


Weather Definition


00:00 20.9 14.4 66   LegendMM LegendMM LegendMM 99.94 25   LegendNANA
01:00 20.8 14.7 68   LegendMM LegendMM LegendMM 99.85 25   LegendNANA
02:00 20.2 15.0 72   LegendMM LegendMM LegendMM 99.77     LegendNANA
03:00 20.6 16.1 75   LegendMM LegendMM LegendMM 99.72 25   LegendNANA
04:00 20.7 16.1 75   LegendMM LegendMM LegendMM 99.69 25   LegendNANA
05:00 20.8 16.3 75   LegendMM LegendMM LegendMM 99.69 26   LegendNANA
06:00 20.9 16.5 76   LegendMM LegendMM LegendMM 99.73 26   LegendNANA
07:00 21.9 17.8 78   LegendMM LegendMM LegendMM 99.74 28   LegendNANA
08:00 22.9 18.2 75   LegendMM LegendMM LegendMM 99.78 29   LegendNANA
09:00 24.1 19.0 73   LegendMM LegendMM LegendMM 99.81 31   LegendNANA
10:00 25.4 19.3 69   LegendMM LegendMM LegendMM 99.85 32   LegendNANA
11:00 25.5 18.6 66   LegendMM LegendMM LegendMM 99.90 32   LegendNANA
12:00 26.9 18.4 60   LegendMM LegendMM LegendMM 99.89 33   LegendNANA
13:00 28.6 17.8 52   LegendMM LegendMM LegendMM 99.91 34   LegendNANA
14:00 29.1 16.3 46   LegendMM LegendMM LegendMM 99.89 34   LegendNANA
15:00 28.4 15.1 44   LegendMM LegendMM LegendMM 99.93 32   LegendNANA
16:00 28.6 15.0 44   LegendMM LegendMM LegendMM 99.94 33   LegendNANA
17:00 27.5 15.2 47   LegendMM LegendMM LegendMM 99.98 32   LegendNANA
18:00 26.7 15.0 49   LegendMM LegendMM LegendMM 99.98 31   LegendNANA
19:00 25.1 14.9 53   LegendMM LegendMM LegendMM 100.00 29   LegendNANA
20:00 24.0 14.9 57   LegendMM LegendMM LegendMM 100.02 28   LegendNANA
21:00 22.9 15.3 62   LegendMM LegendMM LegendMM 100.03 27   LegendNANA
22:00 22.1 15.8 67   LegendMM LegendMM LegendMM 100.08 27   LegendNANA
23:00 22.1 15.8 67   LegendMM LegendMM LegendMM 100.04 27   LegendNANA

Notes on Data Quality.

Legend

  • E = Estimated
  • M = Missing
  • NA = Not Available*
  • [empty] = Indicates an unobserved value
Date modified: